When you browse on this site, cookies collect data to enhance your experience and personalize the content and advertising you see.
Visit our Privacy Policy to learn more. By continuing to use the site, you agree to this use of cookies and data.
  • In Romania
  • List of Countries
  • For 7 days
  • Water Temperature
  • Satellite Maps
  • Weather Map
  • Weather Widgets
  • user-avatar
    Login

    Hourly Weather Mayrhofen

    Today, 19 May, Sunday

    Time Temperature Precipitation Wind Pressure Humidity
    00:00 +3°C° 0.1 mm 2 mps 609 mmHg 87%
    01:00 +2°C° 0 mm 3 mps 609 mmHg 87%
    02:00 +3°C° 0.2 mm 2 mps 609 mmHg 88%
    03:00 +3°C° 0.2 mm 2 mps 609 mmHg 89%
    04:00 +2°C° 0.2 mm 2 mps 608 mmHg 90%
    05:00 +4°C° 0.2 mm 1 mps 609 mmHg 90%
    06:00 +5°C° 0.2 mm 1 mps 609 mmHg 90%
    07:00 +5°C° 0.2 mm 1 mps 609 mmHg 90%
    08:00 +7°C° 0.1 mm 1 mps 609 mmHg 85%
    09:00 +8°C° 0.1 mm 1 mps 610 mmHg 81%
    10:00 +9°C° 0.1 mm 1 mps 610 mmHg 77%
    11:00 +10°C° 0.2 mm 1 mps 610 mmHg 76%
    12:00 +11°C° 0.2 mm 1 mps 610 mmHg 75%
    13:00 +11°C° 0.2 mm 1 mps 610 mmHg 75%
    14:00 +11°C° 0.4 mm 1 mps 610 mmHg 76%
    15:00 +11°C° 0.4 mm 1 mps 610 mmHg 76%
    16:00 +11°C° 0.4 mm 1 mps 610 mmHg 77%
    17:00 +9°C° 0.3 mm 1 mps 609 mmHg 80%
    18:00 +8°C° 0.3 mm 1 mps 609 mmHg 83%
    19:00 +7°C° 0.3 mm 1 mps 608 mmHg 86%
    20:00 +6°C° 0 mm 1 mps 608 mmHg 87%
    21:00 +5°C° 0 mm 1 mps 608 mmHg 89%
    22:00 +4°C° 0 mm 1 mps 607 mmHg 90%
    23:00 +4°C° 0.2 mm 1 mps 607 mmHg 90%

    Tomorrow, 20 May, Monday

    Time Temperature Precipitation Wind Pressure Humidity
    00:00 +4°C° 0.2 mm 1 mps 608 mmHg 91%
    01:00 +4°C° 0.2 mm 1 mps 608 mmHg 91%
    02:00 +4°C° 1 mm 1 mps 607 mmHg 92%
    03:00 +4°C° 1 mm 1 mps 607 mmHg 93%
    04:00 +4°C° 1 mm 1 mps 607 mmHg 93%
    05:00 +4°C° 2.6 mm 1 mps 607 mmHg 94%
    06:00 +4°C° 2.6 mm 1 mps 607 mmHg 95%
    07:00 +4°C° 2.6 mm 1 mps 607 mmHg 96%
    08:00 +4°C° 2.4 mm 1 mps 607 mmHg 96%
    09:00 +3°C° 2.4 mm 2 mps 608 mmHg 96%
    10:00 +3°C° 2.4 mm 2 mps 608 mmHg 95%
    11:00 +4°C° 1.8 mm 2 mps 608 mmHg 95%
    12:00 +4°C° 1.8 mm 2 mps 608 mmHg 95%
    13:00 +4°C° 1.8 mm 2 mps 608 mmHg 95%
    14:00 +4°C° 1.7 mm 2 mps 608 mmHg 95%
    15:00 +4°C° 1.7 mm 2 mps 609 mmHg 95%
    16:00 +4°C° 1.7 mm 2 mps 609 mmHg 96%
    17:00 +4°C° 2.3 mm 2 mps 609 mmHg 96%
    18:00 +4°C° 2.3 mm 2 mps 609 mmHg 96%
    19:00 +3°C° 2.3 mm 2 mps 609 mmHg 96%
    20:00 +3°C° 3.5 mm 2 mps 609 mmHg 96%
    21:00 +3°C° 3.5 mm 2 mps 609 mmHg 96%
    22:00 +3°C° 3.5 mm 2 mps 609 mmHg 96%
    23:00 +3°C° 2.7 mm 2 mps 609 mmHg 96%

    Day after tomorrow, 21 May, Tuesday

    Time Temperature Precipitation Wind Pressure Humidity
    00:00 +3°C° 2.7 mm 2 mps 609 mmHg 96%
    01:00 +2°C° 2.7 mm 2 mps 609 mmHg 96%
    02:00 +3°C° 1.4 mm 2 mps 609 mmHg 96%
    03:00 +3°C° 1.4 mm 2 mps 610 mmHg 95%
    04:00 +4°C° 1.4 mm 1 mps 610 mmHg 95%
    05:00 +4°C° 0.7 mm 1 mps 610 mmHg 95%
    06:00 +4°C° 0.7 mm 1 mps 610 mmHg 96%
    07:00 +5°C° 0.7 mm 1 mps 611 mmHg 96%
    08:00 +5°C° 0.6 mm 1 mps 611 mmHg 95%
    09:00 +5°C° 0.6 mm 1 mps 612 mmHg 94%
    10:00 +6°C° 0.6 mm 1 mps 612 mmHg 93%
    11:00 +6°C° 0.5 mm 1 mps 612 mmHg 93%
    12:00 +5°C° 0.5 mm 2 mps 613 mmHg 92%
    13:00 +5°C° 0.5 mm 2 mps 613 mmHg 91%
    14:00 +6°C° 0.2 mm 2 mps 613 mmHg 90%
    15:00 +6°C° 0.2 mm 2 mps 613 mmHg 88%
    16:00 +6°C° 0.2 mm 2 mps 614 mmHg 87%
    17:00 +6°C° 0 mm 2 mps 614 mmHg 89%
    18:00 +5°C° 0 mm 2 mps 614 mmHg 91%
    19:00 +6°C° 0 mm 1 mps 614 mmHg 93%
    20:00 +5°C° 0 mm 1 mps 614 mmHg 94%
    21:00 +5°C° 0 mm 1 mps 614 mmHg 95%
    22:00 +4°C° 0 mm 1 mps 614 mmHg 96%
    23:00 +4°C° 0 mm 1 mps 614 mmHg 96%

    22 May, Wednesday

    Time Temperature Precipitation Wind Pressure Humidity
    00:00 +3°C° 0 mm 1 mps 614 mmHg 95%
    01:00 +3°C° 0 mm 1 mps 614 mmHg 95%
    02:00 +3°C° 0.1 mm 1 mps 614 mmHg 94%
    03:00 +3°C° 0.1 mm 1 mps 614 mmHg 93%
    04:00 +3°C° 0.1 mm 1 mps 614 mmHg 93%
    05:00 +4°C° 0.3 mm 1 mps 615 mmHg 92%
    06:00 +4°C° 0.3 mm 1 mps 615 mmHg 92%
    07:00 +5°C° 0.3 mm 1 mps 615 mmHg 91%
    08:00 +6°C° 0.2 mm 1 mps 616 mmHg 90%
    09:00 +7°C° 0.2 mm 1 mps 616 mmHg 88%
    10:00 +7°C° 0.2 mm 2 mps 617 mmHg 86%
    11:00 +7°C° 0.2 mm 2 mps 617 mmHg 83%
    12:00 +8°C° 0.2 mm 2 mps 617 mmHg 80%
    13:00 +9°C° 0.2 mm 2 mps 617 mmHg 77%
    14:00 +9°C° 0.2 mm 2 mps 617 mmHg 77%
    15:00 +9°C° 0.2 mm 2 mps 617 mmHg 77%
    16:00 +9°C° 0.2 mm 2 mps 617 mmHg 78%
    17:00 +8°C° 0.2 mm 2 mps 617 mmHg 82%
    18:00 +7°C° 0.2 mm 2 mps 617 mmHg 87%
    19:00 +6°C° 0.2 mm 2 mps 617 mmHg 91%
    20:00 +6°C° 0 mm 1 mps 617 mmHg 93%
    21:00 +5°C° 0 mm 1 mps 617 mmHg 95%
    22:00 +4°C° 0 mm 1 mps 617 mmHg 97%
    23:00 +3°C° 0 mm 1 mps 616 mmHg 96%

    23 May, Thursday

    Time Temperature Precipitation Wind Pressure Humidity
    00:00 +3°C° 0 mm 1 mps 616 mmHg 95%
    01:00 +3°C° 0 mm 1 mps 616 mmHg 94%
    02:00 +2°C° 0 mm 1 mps 616 mmHg 94%
    03:00 +2°C° 0 mm 1 mps 616 mmHg 93%
    04:00 +2°C° 0 mm 1 mps 616 mmHg 92%
    05:00 +3°C° 0 mm 1 mps 616 mmHg 89%
    06:00 +5°C° 0 mm 1 mps 617 mmHg 86%
    07:00 +6°C° 0 mm 0 mps 618 mmHg 82%
    08:00 +7°C° 0 mm 0 mps 618 mmHg 78%
    09:00 +9°C° 0 mm 0 mps 619 mmHg 73%
    10:00 +11°C° 0 mm 0 mps 619 mmHg 69%
    11:00 +11°C° 0.1 mm 0 mps 619 mmHg 67%
    12:00 +13°C° 0.1 mm 1 mps 619 mmHg 66%
    13:00 +13°C° 0.1 mm 1 mps 619 mmHg 64%
    14:00 +12°C° 0.6 mm 1 mps 618 mmHg 69%
    15:00 +12°C° 0.6 mm 2 mps 618 mmHg 74%
    16:00 +10°C° 0.6 mm 2 mps 617 mmHg 79%
    17:00 +9°C° 0.8 mm 2 mps 617 mmHg 84%
    18:00 +8°C° 0.8 mm 2 mps 616 mmHg 89%
    19:00 +8°C° 0.8 mm 1 mps 616 mmHg 94%
    20:00 +7°C° 0.6 mm 1 mps 616 mmHg 95%
    21:00 +7°C° 0.6 mm 1 mps 616 mmHg 95%
    22:00 +6°C° 0.6 mm 1 mps 616 mmHg 96%
    23:00 +6°C° 0.2 mm 1 mps 615 mmHg 94%

    24 May, Friday

    Time Temperature Precipitation Wind Pressure Humidity
    00:00 +5°C° 0.2 mm 0 mps 615 mmHg 92%
    01:00 +4°C° 0.2 mm 0 mps 615 mmHg 90%
    02:00 +4°C° 0 mm 0 mps 614 mmHg 89%
    03:00 +4°C° 0 mm 0 mps 614 mmHg 88%
    04:00 +3°C° 0 mm 0 mps 613 mmHg 87%
    05:00 +4°C° 0.1 mm 0 mps 614 mmHg 86%
    06:00 +5°C° 0.1 mm 0 mps 614 mmHg 85%
    07:00 +6°C° 0.1 mm 0 mps 614 mmHg 85%
    08:00 +7°C° 0.3 mm 0 mps 614 mmHg 80%
    09:00 +9°C° 0.3 mm 1 mps 614 mmHg 75%
    10:00 +10°C° 0.3 mm 1 mps 614 mmHg 71%
    11:00 +11°C° 0.3 mm 1 mps 614 mmHg 70%
    12:00 +11°C° 0.3 mm 1 mps 614 mmHg 68%
    13:00 +12°C° 0.3 mm 1 mps 614 mmHg 67%
    14:00 +12°C° 0.4 mm 1 mps 614 mmHg 70%
    15:00 +11°C° 0.4 mm 1 mps 613 mmHg 72%
    16:00 +11°C° 0.4 mm 1 mps 613 mmHg 74%
    17:00 +10°C° 0.5 mm 1 mps 613 mmHg 81%
    18:00 +9°C° 0.5 mm 1 mps 612 mmHg 87%
    19:00 +8°C° 0.5 mm 1 mps 612 mmHg 93%
    20:00 +7°C° 1 mm 1 mps 612 mmHg 95%
    21:00 +7°C° 1 mm 1 mps 613 mmHg 96%
    22:00 +6°C° 1 mm 1 mps 613 mmHg 98%
    23:00 +6°C° 2.4 mm 1 mps 613 mmHg 98%
    Show more